{"data":{"norad_id":57526,"epoch":"2026-09-20T05:40:44.997024Z","epoch_age_seconds":150400,"freshness":"FRESH","line1":"1 57526U 23115F   26263.23663191  .00000384  00000+0  23464-4 0  9994","line2":"2 57526  43.0019 343.0168 0001201 266.0046  94.0668 15.27578323172104","mean_motion":15.27578323,"eccentricity":0.0001201,"inclination_deg":43.0019,"raan_deg":343.0168,"arg_perigee_deg":266.0046,"mean_anomaly_deg":94.0668,"bstar":2.3464e-5,"rev_number":17210,"period_min":94.266852201201,"perigee_km":482.23008853232,"apogee_km":483.87814663877,"semimajor_km":6861.1911175855,"source":"CELESTRAK","updated_at":"2026-09-21T09:00:33.637700Z"}}